OSCAR 7 1 07530U 74089B 26037.02624425 -.00000050 00000-0 -21724-4 0 9993 2 07530 101.9971 48.8765 0012265 22.7839 358.4983 12.53695631344080 OSCAR 11 (UOSAT 2) 1 14781U 84021B 26036.85138238 .00003200 00000-0 33425-3 0 9996 2 14781 97.7897 4.0571 0006026 256.2903 103.7644 14.90386170237565 OSCAR 19 (LUSAT) 1 20442U 90005G 26037.01483928 .00000209 00000-0 91313-4 0 9991 2 20442 98.8950 55.1442 0010800 227.2789 132.7486 14.34074330883593 EYESAT A 1 22825U 93061C 26036.75106129 .00000193 00000-0 90537-4 0 9997 2 22825 98.7051 104.1259 0009343 122.7781 237.4303 14.30902163688205 ITAMSAT 1 22826U 93061D 26037.11899557 .00000201 00000-0 92613-4 0 9990 2 22826 98.6997 104.3987 0009995 107.3909 252.8368 14.31325395688566 RADIO ROSTO 1 23439U 94085A 26037.29959368 -.00000117 00000-0 -21124-2 0 9999 2 23439 64.8163 154.8982 0151536 28.0086 332.8891 11.27582988281144 JAS 2 1 24278U 96046B 26037.07751322 -.00000009 00000-0 23662-4 0 9996 2 24278 98.5422 263.7671 0350850 76.6437 287.3563 13.53266602455430 TECHSAT 1B 1 25397U 98043D 26036.91939292 .00000123 00000-0 73346-4 0 9994 2 25397 98.9985 26.4237 0000721 181.8387 178.2789 14.24396805432649 ISS (ZARYA) 1 25544U 98067A 26037.21207386 .00012979 00000-0 24775-3 0 9993 2 25544 51.6316 227.9611 0011199 69.2605 290.9583 15.48432747551452 PCSAT 1 26931U 01043C 26036.91722016 .00000247 00000-0 12322-3 0 9990 2 26931 67.0487 223.7821 0007062 266.3135 93.7159 14.31893590271659 SAUDISAT 1C 1 27607U 02058C 26036.78226613 .00003071 00000-0 38022-3 0 9998 2 27607 64.5527 175.4412 0074415 286.4547 72.8391 14.82654339244975 CUTE-1 1 27844U 03031E 26037.02060227 .00000479 00000-0 22668-3 0 9996 2 27844 98.6774 47.2153 0009183 200.5124 159.5687 14.24238896173004 CUBESAT XI 4 1 27848U 03031J 26036.94383249 .00000403 00000-0 19611-3 0 9993 2 27848 98.6803 46.9576 0008751 219.9114 140.1422 14.23538042172703 MOZHAYETS 4 1 27939U 03042A 26037.35271043 .00001884 00000-0 30030-3 0 9992 2 27939 98.3399 218.0489 0010769 329.0119 149.6970 14.73161396196286 CUBESAT XI 5 1 28895U 05043F 26036.97653185 .00002891 00000-0 46647-3 0 9995 2 28895 98.2781 190.0161 0013158 260.9206 99.0512 14.72174299 82440 CUTE-1.7+APD 2 1 32785U 08021C 26037.19778586 .00009157 00000-0 59981-3 0 9992 2 32785 97.8167 16.1296 0011194 109.8097 250.4338 15.07905038965441 SEEDS 1 32791U 08021J 26036.97079956 .00028414 00000-0 10503-2 0 9992 2 32791 97.7493 29.1271 0005441 69.7436 290.4387 15.27668637967224 YUBELEINY 1 32953U 08025A 26037.24074557 -.00000037 00000-0 -33541-3 0 9990 2 32953 82.4989 76.8980 0018507 234.9918 124.9425 12.43174591803420 KKS-1 (KISEKI) 1 33499U 09002H 26037.22041371 .00002599 00000-0 32881-3 0 9997 2 33499 98.1188 317.6406 0008085 5.9581 354.1726 14.82700964916781 SWISSCUBE 1 35932U 09051B 26037.20498355 .00001835 00000-0 37445-3 0 9994 2 35932 98.4129 302.7853 0005535 260.9477 99.1097 14.62167394870012 BEESAT 1 35933U 09051C 26037.21670984 .00001553 00000-0 32335-3 0 9996 2 35933 98.4058 302.7004 0004064 278.7991 81.2749 14.61455325870059 ITUPSAT 1 1 35935U 09051E 26037.16228930 .00001405 00000-0 30158-3 0 9999 2 35935 98.4147 301.9709 0006341 290.0402 70.0115 14.60196273869613 XIWANG-1 (HOPE-1) 1 36122U 09072B 26037.29724814 .00000397 00000-0 11560-2 0 9991 2 36122 100.3867 353.3217 0007497 168.2379 191.8910 13.16436581775789 TISAT 1 1 36799U 10035E 26036.77482882 .00036906 00000-0 14291-2 0 9999 2 36799 98.0623 332.3284 0003310 37.2025 322.9440 15.26078445847628 JUGNU 1 37839U 11058B 26037.24039311 .00000549 00000-0 14726-3 0 9997 2 37839 19.9623 23.9494 0018781 70.6819 52.3180 14.13726855740472 SRMSAT 1 37841U 11058D 26036.68349419 .00000536 00000-0 14731-3 0 9992 2 37841 19.9711 135.4160 0011578 196.7827 317.6264 14.11535642739218 HORYU 2 1 38340U 12025D 26037.13972467 .00006276 00000-0 65548-3 0 9997 2 38340 98.1973 164.9671 0007515 248.0100 112.0318 14.90056683729202 STRAND 1 1 39090U 13009E 26036.95422955 .00000515 00000-0 18791-3 0 9992 2 39090 98.3855 220.4399 0007581 262.4770 97.5556 14.37065643678219 CUBEBUG 1 1 39153U 13018D 26036.94452867 .00006720 00000-0 59977-3 0 9991 2 39153 98.1465 191.2638 0011459 220.6890 139.3475 14.96258127691433 ZACUBE 1 39417U 13066B 26037.31340967 .00009735 00000-0 77506-3 0 9993 2 39417 97.8175 358.9897 0040926 328.4183 31.4584 14.99930504661105 TRITON 1 1 39427U 13066M 26037.25617666 .00005524 00000-0 67200-3 0 9992 2 39427 97.8315 310.0717 0089897 301.6576 57.5891 14.80991226654707 GOMX 1 1 39430U 13066Q 26037.28831471 .00003243 00000-0 49362-3 0 9996 2 39430 97.6575 245.9495 0130491 137.3982 223.7437 14.68960131650692 HUMSAT D 1 39433U 13066T 26037.00238542 .00324127 00000-0 19957-2 0 9992 2 39433 97.4946 47.1219 0002291 61.2120 298.9376 15.76280709666437 CUBEBUG 2 1 39440U 13066AA 26037.25983930 .00006959 00000-0 65825-3 0 9991 2 39440 97.8774 345.9045 0060765 100.9771 259.8292 14.92574640657459 FUNCUBE 1 1 39444U 13066AE 26036.84840315 .00016831 00000-0 11021-2 0 9996 2 39444 97.8146 5.8746 0036002 291.7835 67.9563 15.07271677659860 UWE-3 1 39446U 13066AG 26036.82439138 .00010655 00000-0 93494-3 0 9996 2 39446 97.8559 352.2552 0051670 39.3948 321.1012 14.95763546657930 UNISAT 6 1 40012U 14033C 26036.99014905 .00006510 00000-0 71195-3 0 9990 2 40012 97.7672 192.2273 0046530 139.9203 220.5462 14.87371583626651 DUCHIFAT 1 1 40021U 14033M 26037.08749906 .00065795 00000-0 13333-2 0 9996 2 40021 98.0698 79.8807 0006157 175.2197 184.9110 15.46155365635389 QB50P1 1 40025U 14033R 26036.89899582 .00015867 00000-0 83293-3 0 9992 2 40025 98.0996 39.0574 0007892 325.8248 34.2474 15.15798611633123 OBJECT G 1 40905U 15049G 26037.32785197 .00049956 00000-0 69063-3 0 9997 2 40905 97.4773 74.3540 0005571 356.9448 3.1772 15.56978916576024 LILACSAT 2 1 40908U 15049K 26037.28082541 .00028702 00000-0 57165-3 0 9994 2 40908 97.4854 69.4363 0007953 21.9231 338.2357 15.46836990575484 LQSAT 1 40958U 15057A 26037.29222203 .00001881 00000-0 27586-3 0 9993 2 40958 97.6635 37.2044 0016755 342.6981 17.3657 14.76577485555997 CHUBUSAT 2 1 41338U 16012B 26037.21772419 .00009471 00000-0 43189-3 0 9999 2 41338 30.9983 99.9041 0009404 180.3964 179.6670 15.19271892548472 CHUBUSAT 3 1 41339U 16012C 26037.28540931 .00008718 00000-0 42144-3 0 9992 2 41339 31.0049 106.0915 0009706 173.1369 186.9405 15.17231987548298 PRATHAM 1 41783U 16059A 26037.22558712 .00001307 00000-0 24020-3 0 9996 2 41783 97.8298 39.8783 0029886 276.2469 83.5332 14.66976790500313 ALSAT 1N 1 41789U 16059G 26037.21563368 .00001733 00000-0 30210-3 0 9995 2 41789 97.8022 46.4149 0024642 245.9760 113.8867 14.69041343500776